星链-31105 (STARLINK-31105 )

导读

STARLINK-31105是美国SpaceX星链星座的卫星,于2024年1月15日发射入轨,属于星链低轨互联网卫星星座的扩容卫星。星链系统旨在为全球用户提供高速低延迟宽带互联网服务,这类卫星通常运行在近地轨道,持续推进星座组网进程,支撑全球覆盖的卫星互联网服务部署。

基本信息
目录编号:
58805
目录名称:
STARLINK-31105
国际标识:
2024-012U
轨道中心:
EARTH
卫星名称:
星链-31105
卫星全名:
星链-31105 (STARLINK-31105 )
卫星状态:
已陨落 最后检测时间 2024-09-01
发射日期:
2024-01-15 UTC
国别 :
美国 (US)
星等 :
--
该卫星已列入 空间交会检测服务 Space Conjunction Data Service (SCDS) ,当前飞行风险评估等级: 无高风险
轨道信息
数据来源 国际轨道数据
星历时间: 2024-09-02T05:32:21+0800
轨道信息已过期740天
半长轴: 6558.458km
偏心率: 0.002438
轨道倾角: 42.978°
近地点辐角 322.510°
升交点赤经 27.259°
平近点角 90.069°
近地点: 164.333km
远地点: 196.313km
周期: 88.097分钟
每日圈数: 16.345573
详细信息
固有亮度:
5
最大亮度:
0.3
卫星平台:
Starlink v2.0 mini
覆盖范围:
全球
运营商:
太空探索技术公司
运营商所在国:
美国
制造商(研发单位):
太空探索技术公司
制造商所在国:
美国
使用方式:
暂无
卫星简介
星链(Starlink)计划是由太空探索技术公司(SpaceX)提出的一个巨型低轨卫星互联网星座项目,计划在2019年至2024年间在太空搭建由约1.2万颗卫星组成的“星链”网络,其中1584颗将部署在地球上空550千米处的近地轨道,并从2020年开始工作。该卫星仍在工作。
与全量物体交会距离演化趋势
与全量物体交会风险概率演化趋势